This is the latest recevied weather packets stored in our database for station/object K2RMB. If no packets are shown the sender has not sent any weather packets the latest 1 day(s).
| Time | Temp. | Humidity | Pressure | Rain* | Wind** | Luminosity | Snow |
|---|---|---|---|---|---|---|---|
| 1778008697 | 26.67° C | 35% | 1006.2 hPa | 0 mm | 0.89 m/s, 24° | 281 W/m² | - |
| 1778008395 | 26.11° C | 38% | 1006.2 hPa | 0 mm | 2.68 m/s, 18° | 688 W/m² | - |
| 1778008092 | 26.11° C | 36% | 1006.2 hPa | 0 mm | 0.89 m/s, 18° | 565 W/m² | - |
| 1778007787 | 26.67° C | 36% | 1006.2 hPa | 0 mm | 0.89 m/s, 30° | 265 W/m² | - |
| 1778007483 | 26.67° C | 33% | 1006.2 hPa | 0 mm | 0.89 m/s, 36° | 799 W/m² | - |
| 1778007180 | 26.11° C | 34% | 1006.2 hPa | 0 mm | 2.24 m/s, 29° | 845 W/m² | - |
| 1778006876 | 26.67° C | 35% | 1006.2 hPa | 0 mm | 1.34 m/s, 12° | 865 W/m² | - |
| 1778006573 | 26.67° C | 38% | 1006.2 hPa | 0 mm | 0.89 m/s, 48° | 831 W/m² | - |
| 1778006270 | 26.67° C | 34% | 1006.2 hPa | 0 mm | 0.89 m/s, 42° | 832 W/m² | - |
| 1778005967 | 26.67° C | 35% | 1006.2 hPa | 0 mm | 2.68 m/s, 18° | 422 W/m² | - |
| 1778005664 | 26.11° C | 35% | 1006.2 hPa | 0 mm | 1.34 m/s, 30° | 794 W/m² | - |
| 1778005360 | 26.11° C | 36% | 1006.2 hPa | 0 mm | 1.79 m/s, 0° | 805 W/m² | - |
| 1778005057 | 26.11° C | 35% | 1007 hPa | 0 mm | 2.24 m/s, 18° | 564 W/m² | - |
| 1778004755 | 26.67° C | 39% | 1007 hPa | 0 mm | 1.34 m/s, 24° | 930 W/m² | - |
| 1778004451 | 26.67° C | 35% | 1006.5 hPa | 0 mm | 2.24 m/s, 18° | 800 W/m² | - |
| 1778004148 | 26.11° C | 34% | 1007 hPa | 0 mm | 3.58 m/s, 12° | 909 W/m² | - |
| 1778003844 | 25.56° C | 35% | 1007 hPa | 0 mm | 4.02 m/s, 18° | 993 W/m² | - |
| 1778003541 | 26.11° C | 36% | 1007 hPa | 0 mm | 0 m/s | 799 W/m² | - |
| 1778003237 | 25.56° C | 35% | 1007.6 hPa | 0 mm | 3.58 m/s, 24° | 920 W/m² | - |
| 1778002934 | 26.11° C | 38% | 1007.3 hPa | 0 mm | 0.89 m/s, 18° | 947 W/m² | - |
| 1778002630 | 26.11° C | 35% | 1007.3 hPa | 0 mm | 2.24 m/s, 30° | 907 W/m² | - |
| 1778002327 | 26.11° C | 36% | 1007.3 hPa | 0 mm | 0.89 m/s, 24° | 871 W/m² | - |
| 1778002024 | 26.11° C | 38% | 1007.3 hPa | 0 mm | 0.89 m/s, 18° | 871 W/m² | - |
| 1778001721 | 26.11° C | 39% | 1007.3 hPa | 0 mm | 1.79 m/s, 18° | 898 W/m² | - |
| 1778001421 | 25.56° C | 38% | 1007.3 hPa | 0 mm | 2.24 m/s, 18° | 911 W/m² | - |
* Rain latest hour (hover to see other rain measurements)
** Current wind speed in m/s (hover to see current wind gust speed)